Weather History for KORE - May, 2013

Change the Weather History Date:

Wednesday, May 1, 2013

  Actual Average Record
Temperature  
Mean Temperature 53 °F -  
Max Temperature 75 °F 63 °F 87 °F (2001)
Min Temperature 33 °F 36 °F 28 °F (1999)
Degree Days  
Heating Degree Days 12    
Growing Degree Days 3 (Base 50)    
Moisture  
Dew Point 30 °F    
Average Humidity 46    
Maximum Humidity 89    
Minimum Humidity 16    
Precipitation  
Precipitation 0.00 in - - ()
Sea Level Pressure  
Sea Level Pressure 30.43 in    
Wind  
Wind Speed 1 mph (SSE)    
Max Wind Speed 7 mph    
Max Gust Speed -    
Visibility 10 miles    
Events      
Averages and records for this station are not official NWS values.
T = Trace of Precipitation, MM = Missing Value Source: NWS Daily Summary

Daily Weather History Graph

Daily Weather History Graph

Search for Another Location

Airport or City:

Trip Planner

Search our weather history database for the weather conditions in past years. The results will help you decide how hot, cold, wet, or windy it might be!

Date:

Astronomy

May. 01, 2013 Rise Set
Actual Time 5:43 AM EDT 7:49 PM EDT
Civil Twilight 5:12 AM EDT 8:20 PM EDT
Nautical Twilight 4:35 AM EDT 8:58 PM EDT
Astronomical Twilight 3:53 AM EDT 9:40 PM EDT
Moon 12:57 AM EDT (5/1) 11:18 AM EDT (5/1)
Length of Visible Light 15h 07m
Length of Day
14h 05m
Waning Gibbous, 59% of the Moon is Illuminated
May 1
Waning Gibbous
May 2
Last Quarter
May 9
New
May 18
First Quarter
May 25
Full

Hourly Weather History & Observations

Time (EDT) Temp. Dew Point Humidity Pressure Visibility Wind Dir Wind Speed Gust Speed Precip Events Conditions
12:52 AM 42.1 °F 32.0 °F 67% 30.37 in 10.0 mi Calm Calm - N/A   Clear
1:52 AM 39.0 °F 32.0 °F 76% 30.38 in 10.0 mi Calm Calm - N/A   Clear
2:52 AM 37.0 °F 32.0 °F 82% 30.40 in 10.0 mi Calm Calm - N/A   Clear
3:52 AM 36.0 °F 30.9 °F 82% 30.41 in 10.0 mi Calm Calm - N/A   Clear
4:52 AM 34.0 °F 30.0 °F 85% 30.42 in 10.0 mi Calm Calm - N/A   Clear
5:52 AM 33.1 °F 30.0 °F 89% 30.43 in 10.0 mi Calm Calm - N/A   Clear
6:52 AM 37.9 °F 33.1 °F 83% 30.45 in 10.0 mi Calm Calm - N/A   Clear
7:52 AM 46.0 °F 32.0 °F 58% 30.46 in 10.0 mi Calm Calm - N/A   Clear
8:52 AM 53.1 °F 30.0 °F 41% 30.46 in 10.0 mi Calm Calm - N/A   Clear
9:52 AM 61.0 °F 28.9 °F 30% 30.47 in - North - - N/A   Clear
10:52 AM 66.0 °F - N/A% 30.46 in 10.0 mi Calm Calm - N/A   Clear
11:52 AM 66.9 °F 21.9 °F 18% 30.44 in 10.0 mi Calm Calm - N/A   Clear
12:52 PM 70.0 °F 24.1 °F 18% 30.42 in 10.0 mi North - - N/A   Clear
1:52 PM 72.0 °F 24.1 °F 17% 30.41 in 10.0 mi South 6.9 mph - N/A   Clear
2:52 PM 73.0 °F 25.0 °F 17% 30.40 in 10.0 mi South 6.9 mph - N/A   Clear
3:52 PM 73.9 °F 25.0 °F 16% 30.40 in 10.0 mi SSW 6.9 mph - N/A   Clear
4:52 PM 73.0 °F 26.1 °F 17% 30.39 in 10.0 mi Variable 3.5 mph - N/A   Clear
5:52 PM 73.0 °F 28.0 °F 19% 30.40 in 10.0 mi SSW 4.6 mph - N/A   Clear
6:52 PM 71.1 °F 30.9 °F 23% 30.41 in 10.0 mi ESE 6.9 mph - N/A   Clear
7:52 PM 66.0 °F 30.9 °F 27% 30.43 in 10.0 mi ESE 6.9 mph - N/A   Clear
8:52 PM 62.1 °F 30.9 °F 31% 30.45 in 10.0 mi SSE 5.8 mph - N/A   Clear
9:52 PM 57.9 °F 32.0 °F 37% 30.47 in 10.0 mi Calm Calm - N/A   Clear
10:52 PM 51.1 °F 34.0 °F 52% 30.47 in 10.0 mi Calm Calm - N/A   Clear
11:52 PM 46.9 °F 37.0 °F 68% 30.46 in 10.0 mi Calm Calm - N/A   Clear